When you browse on this site, cookies collect data to enhance your experience and personalize the content and advertising you see.
Visit our Privacy Policy to learn more. By continuing to use the site, you agree to this use of cookies and data.
  • En España
  • Lista de países
  • Para 7 días
  • Temperatura del agua
  • Mapa Satelital
  • El tiempo en el mapa
  • Informadores
  • user-avatar
    Iniciar sesión

    Tiempo cada hora Makove

    Hoy, 19 Mayo, Domingo

    Tiempo Temperatura Precipitaciones Viento Presión Humedad
    00:00 +12°C° 0 mm 3 mps 747 mmHg 82%
    01:00 +11°C° 0 mm 3 mps 747 mmHg 82%
    02:00 +12°C° 0 mm 2 mps 747 mmHg 81%
    03:00 +12°C° 0 mm 2 mps 747 mmHg 81%
    04:00 +12°C° 0 mm 2 mps 747 mmHg 82%
    05:00 +12°C° 0 mm 2 mps 747 mmHg 82%
    06:00 +13°C° 0 mm 3 mps 747 mmHg 77%
    07:00 +16°C° 0 mm 3 mps 747 mmHg 73%
    08:00 +19°C° 0 mm 3 mps 747 mmHg 68%
    09:00 +20°C° 0 mm 3 mps 747 mmHg 64%
    10:00 +21°C° 0 mm 4 mps 748 mmHg 60%
    11:00 +22°C° 0 mm 4 mps 748 mmHg 55%
    12:00 +23°C° 0 mm 4 mps 748 mmHg 55%
    13:00 +23°C° 0 mm 4 mps 748 mmHg 55%
    14:00 +23°C° 0 mm 4 mps 748 mmHg 55%
    15:00 +23°C° 0 mm 4 mps 748 mmHg 59%
    16:00 +24°C° 0 mm 3 mps 748 mmHg 62%
    17:00 +24°C° 0 mm 3 mps 748 mmHg 65%
    18:00 +21°C° 0 mm 3 mps 748 mmHg 70%
    19:00 +19°C° 0 mm 3 mps 748 mmHg 74%
    20:00 +17°C° 0 mm 3 mps 748 mmHg 79%
    21:00 +16°C° 0 mm 3 mps 748 mmHg 81%
    22:00 +14°C° 0 mm 3 mps 749 mmHg 83%
    23:00 +13°C° 0 mm 4 mps 749 mmHg 84%

    Mañana, 20 Mayo, Lunes

    Tiempo Temperatura Precipitaciones Viento Presión Humedad
    00:00 +13°C° 0 mm 4 mps 749 mmHg 83%
    01:00 +13°C° 0 mm 4 mps 749 mmHg 81%
    02:00 +12°C° 0 mm 4 mps 750 mmHg 79%
    03:00 +12°C° 0 mm 4 mps 750 mmHg 79%
    04:00 +12°C° 0 mm 4 mps 750 mmHg 79%
    05:00 +11°C° 0 mm 4 mps 750 mmHg 79%
    06:00 +13°C° 0 mm 4 mps 750 mmHg 73%
    07:00 +15°C° 0 mm 5 mps 751 mmHg 66%
    08:00 +17°C° 0 mm 6 mps 751 mmHg 60%
    09:00 +19°C° 0 mm 6 mps 751 mmHg 58%
    10:00 +20°C° 0 mm 6 mps 751 mmHg 55%
    11:00 +21°C° 0 mm 6 mps 751 mmHg 53%
    12:00 +22°C° 0 mm 6 mps 751 mmHg 53%
    13:00 +22°C° 0 mm 6 mps 751 mmHg 54%
    14:00 +22°C° 0 mm 6 mps 750 mmHg 54%
    15:00 +22°C° 0 mm 5 mps 750 mmHg 58%
    16:00 +22°C° 0 mm 5 mps 750 mmHg 61%
    17:00 +21°C° 0 mm 4 mps 750 mmHg 65%
    18:00 +19°C° 0 mm 4 mps 750 mmHg 70%
    19:00 +18°C° 0 mm 4 mps 750 mmHg 75%
    20:00 +15°C° 0 mm 4 mps 750 mmHg 80%
    21:00 +14°C° 0 mm 4 mps 750 mmHg 79%
    22:00 +13°C° 0 mm 4 mps 750 mmHg 79%
    23:00 +13°C° 0 mm 4 mps 750 mmHg 78%

    Pasado mañana, 21 Mayo, Martes

    Tiempo Temperatura Precipitaciones Viento Presión Humedad
    00:00 +12°C° 0 mm 4 mps 750 mmHg 76%
    01:00 +12°C° 0 mm 5 mps 750 mmHg 75%
    02:00 +12°C° 0 mm 5 mps 750 mmHg 73%
    03:00 +12°C° 0 mm 5 mps 750 mmHg 73%
    04:00 +12°C° 0 mm 5 mps 750 mmHg 74%
    05:00 +12°C° 0 mm 5 mps 750 mmHg 74%
    06:00 +13°C° 0 mm 5 mps 750 mmHg 71%
    07:00 +15°C° 0 mm 6 mps 750 mmHg 69%
    08:00 +17°C° 0 mm 6 mps 750 mmHg 66%
    09:00 +19°C° 0 mm 6 mps 750 mmHg 64%
    10:00 +20°C° 0 mm 6 mps 750 mmHg 62%
    11:00 +22°C° 0 mm 6 mps 750 mmHg 60%
    12:00 +22°C° 0 mm 6 mps 749 mmHg 59%
    13:00 +22°C° 0 mm 6 mps 749 mmHg 58%
    14:00 +23°C° 0 mm 6 mps 749 mmHg 56%
    15:00 +22°C° 0 mm 6 mps 748 mmHg 59%
    16:00 +22°C° 0 mm 5 mps 748 mmHg 62%
    17:00 +22°C° 0 mm 5 mps 747 mmHg 65%
    18:00 +20°C° 0 mm 5 mps 747 mmHg 69%
    19:00 +19°C° 0 mm 5 mps 747 mmHg 74%
    20:00 +17°C° 0 mm 4 mps 747 mmHg 78%
    21:00 +16°C° 0 mm 5 mps 747 mmHg 78%
    22:00 +15°C° 0 mm 5 mps 747 mmHg 78%
    23:00 +15°C° 0 mm 5 mps 746 mmHg 77%

    22 Mayo, Miércoles

    Tiempo Temperatura Precipitaciones Viento Presión Humedad
    00:00 +15°C° 0.2 mm 5 mps 746 mmHg 79%
    01:00 +14°C° 0.2 mm 4 mps 746 mmHg 81%
    02:00 +14°C° 0.2 mm 4 mps 746 mmHg 83%
    03:00 +14°C° 0 mm 4 mps 746 mmHg 85%
    04:00 +14°C° 0 mm 4 mps 745 mmHg 86%
    05:00 +14°C° 0 mm 4 mps 745 mmHg 87%
    06:00 +15°C° 0 mm 4 mps 745 mmHg 83%
    07:00 +17°C° 0 mm 5 mps 745 mmHg 80%
    08:00 +19°C° 0 mm 5 mps 745 mmHg 77%
    09:00 +20°C° 0.8 mm 5 mps 745 mmHg 75%
    10:00 +21°C° 0.8 mm 6 mps 744 mmHg 74%
    11:00 +22°C° 0.8 mm 7 mps 744 mmHg 72%
    12:00 +22°C° 0.6 mm 7 mps 744 mmHg 70%
    13:00 +22°C° 0.6 mm 6 mps 744 mmHg 68%
    14:00 +22°C° 0.6 mm 6 mps 744 mmHg 65%
    15:00 +21°C° 0 mm 6 mps 743 mmHg 67%
    16:00 +21°C° 0 mm 5 mps 743 mmHg 68%
    17:00 +20°C° 0 mm 4 mps 743 mmHg 70%
    18:00 +19°C° 0 mm 4 mps 742 mmHg 76%
    19:00 +17°C° 0 mm 3 mps 742 mmHg 82%
    20:00 +16°C° 0 mm 3 mps 742 mmHg 88%
    21:00 +14°C° 0 mm 3 mps 742 mmHg 89%
    22:00 +14°C° 0 mm 3 mps 741 mmHg 91%
    23:00 +13°C° 0 mm 3 mps 741 mmHg 92%

    23 Mayo, Jueves

    Tiempo Temperatura Precipitaciones Viento Presión Humedad
    00:00 +13°C° 0.1 mm 3 mps 741 mmHg 92%
    01:00 +14°C° 0.1 mm 2 mps 741 mmHg 93%
    02:00 +14°C° 0.1 mm 2 mps 740 mmHg 93%
    03:00 +14°C° 0 mm 2 mps 740 mmHg 93%
    04:00 +14°C° 0 mm 2 mps 740 mmHg 93%
    05:00 +14°C° 0 mm 2 mps 739 mmHg 94%
    06:00 +15°C° 0 mm 2 mps 739 mmHg 89%
    07:00 +17°C° 0 mm 2 mps 739 mmHg 85%
    08:00 +18°C° 0 mm 2 mps 739 mmHg 81%
    09:00 +19°C° 0.3 mm 2 mps 739 mmHg 78%
    10:00 +20°C° 0.3 mm 3 mps 739 mmHg 76%
    11:00 +20°C° 0.3 mm 3 mps 738 mmHg 73%
    12:00 +21°C° 0.3 mm 3 mps 738 mmHg 71%
    13:00 +21°C° 0.3 mm 3 mps 738 mmHg 69%
    14:00 +22°C° 0.3 mm 3 mps 738 mmHg 68%
    15:00 +22°C° 0.3 mm 3 mps 738 mmHg 70%
    16:00 +21°C° 0.3 mm 3 mps 737 mmHg 72%
    17:00 +21°C° 0.3 mm 3 mps 737 mmHg 74%
    18:00 +20°C° 0 mm 2 mps 737 mmHg 80%
    19:00 +18°C° 0 mm 2 mps 737 mmHg 87%
    20:00 +17°C° 0 mm 2 mps 737 mmHg 93%
    21:00 +16°C° 0.2 mm 2 mps 737 mmHg 94%
    22:00 +15°C° 0.2 mm 2 mps 737 mmHg 96%
    23:00 +15°C° 0.2 mm 2 mps 737 mmHg 97%

    24 Mayo, Viernes

    Tiempo Temperatura Precipitaciones Viento Presión Humedad
    00:00 +15°C° 0 mm 2 mps 736 mmHg 97%
    01:00 +14°C° 0 mm 2 mps 736 mmHg 97%
    02:00 +14°C° 0 mm 2 mps 736 mmHg 98%
    03:00 +14°C° 0 mm 2 mps 736 mmHg 98%
    04:00 +14°C° 0 mm 2 mps 736 mmHg 97%
    05:00 +15°C° 0 mm 1 mps 736 mmHg 97%
    06:00 +16°C° 0 mm 1 mps 737 mmHg 94%
    07:00 +18°C° 0 mm 1 mps 737 mmHg 91%
    08:00 +19°C° 0 mm 1 mps 737 mmHg 88%
    09:00 +19°C° 0 mm 1 mps 737 mmHg 84%
    10:00 +20°C° 0 mm 1 mps 737 mmHg 80%
    11:00 +21°C° 0 mm 1 mps 737 mmHg 77%
    12:00 +21°C° 0.1 mm 2 mps 738 mmHg 74%
    13:00 +23°C° 0.1 mm 2 mps 738 mmHg 71%
    14:00 +24°C° 0.1 mm 3 mps 738 mmHg 68%
    15:00 +22°C° 0.7 mm 3 mps 738 mmHg 72%
    16:00 +21°C° 0.7 mm 4 mps 738 mmHg 76%
    17:00 +21°C° 0.7 mm 5 mps 738 mmHg 81%
    18:00 +19°C° 0.8 mm 5 mps 738 mmHg 85%
    19:00 +17°C° 0.8 mm 5 mps 738 mmHg 89%
    20:00 +15°C° 0.8 mm 4 mps 738 mmHg 94%
    21:00 +15°C° 0.5 mm 4 mps 738 mmHg 94%
    22:00 +14°C° 0.5 mm 4 mps 738 mmHg 95%
    23:00 +14°C° 0.5 mm 4 mps 738 mmHg 96%
    Mostrar más